Vorticity
3 4 5 3 4 3 3 2 2 4 3 5 4 8 7 7 4 1 0 4 3 -0 1 6 3 3 4 3 -2 -1 12 6 7 4 3 5 2 3 8 5 10 4 5 7 2 3 8 10 7
3 4 5 3 3 3 3 3 3 1 2 3 3 6 6 5 7 6 7 6 3 2 2 -0 2 3 2 6 0 -1 -0 7 11 3 5 6 3 2 10 4 10 6 4 6 3 2 8 8 8
5 5 4 3 3 2 2 2 2 2 3 3 3 4 3 5 5 6 6 7 3 1 5 1 -0 3 1 5 7 -2 3 2 5 9 0 4 1 3 6 5 8 7 4 7 4 3 9 7 9
2 2 4 0 2 2 2 4 2 2 2 3 4 4 6 6 6 7 7 3 4 1 3 1 -2 4 2 3 2 5 2 8 8 -5 12 -0 5 3 2 5 3 10 5 8 5 2 8 6 10
4 4 4 2 1 2 2 3 4 4 5 6 4 6 6 5 6 8 6 6 5 5 6 6 4 4 5 6 1 3 2 6 3 6 8 4 2 2 1 0 7 7 7 6 7 1 6 6 10
2 2 2 0 4 4 5 5 5 6 6 7 6 6 6 6 7 6 6 6 5 4 5 5 4 4 4 6 7 1 3 3 4 3 18 15 2 6 2 -0 5 6 9 5 6 2 3 7 7
3 4 4 5 6 5 6 6 6 7 6 7 7 6 5 6 7 8 7 7 6 6 5 5 4 4 4 3 4 -0 -2 8 5 4 6 10 9 6 3 0 2 3 6 7 6 4 1 6 6
8 8 8 7 7 9 7 7 7 7 6 6 6 4 6 7 7 8 7 7 6 6 6 3 2 2 2 2 10 1 3 12 3 6 9 6 5 15 4 4 -1 4 1 9 6 5 3 3 9
8 7 5 6 7 5 5 5 4 6 6 8 6 7 8 7 8 7 6 5 4 2 1 2 2 3 4 2 5 7 6 10 7 7 -3 6 2 17 7 5 4 1 4 6 6 6 4 2 7
5 2 2 3 4 4 4 6 8 7 7 7 7 7 7 6 7 6 5 6 6 5 4 5 5 4 4 4 4 7 4 8 14 1 12 1 6 2 7 -1 8 7 6 2 7 7 3 2 4
4 8 11 11 10 9 10 11 10 8 8 7 6 7 7 7 7 7 9 9 6 7 6 3 3 4 3 4 4 4 3 3 15 17 -4 0 -15 44 1 2 4 2 4 -0 6 7 3 2 6
9 8 8 8 8 10 8 9 8 9 10 10 10 10 10 10 10 9 10 9 11 11 7 7 6 5 6 5 4 4 4 5 3 -3 13 31 0 -7 -19 1 -0 0 12 2 5 6 5 3 4
10 9 9 8 8 9 10 11 12 11 12 13 13 12 12 11 11 11 9 8 7 8 9 10 11 11 8 5 5 4 2 3 3 3 0 -1 -20 7 19 47 8 -3 4 11 1 6 4 4 1
9 9 9 10 11 14 17 14 14 13 11 11 10 11 11 12 11 11 12 12 13 12 8 9 12 9 10 10 9 8 7 7 8 7 6 0 9 79 25 3 19 4 -1 10 2 5 5 4 3
10 10 12 14 15 12 10 10 10 10 10 11 11 12 13 13 13 12 13 13 11 11 15 20 17 16 15 16 15 14 14 7 11 4 6 2 8 -11 57 -19 -0 30 -12 9 1 2 5 5 2
10 9 11 10 8 9 12 11 11 10 9 7 7 6 6 5 5 6 6 7 7 8 8 9 10 11 11 12 13 13 15 16 24 -5 7 11 3 -2 23 84 -14 -19 23 20 2 2 5 4 6
9 9 11 9 10 8 7 7 7 5 5 5 5 6 7 10 12 13 13 14 14 15 15 14 14 12 10 9 8 12 8 8 11 13 13 4 4 21 15 32 8 32 49 -4 2 0 3 6 5
11 9 8 9 8 7 6 6 6 8 9 10 12 13 15 15 18 23 28 29 32 33 33 32 30 27 27 17 9 6 5 12 7 6 8 10 9 10 2 -6 -1 80 23 37 31 -3 2 6 6
9 9 9 9 7 10 11 12 13 14 17 20 20 19 20 27 34 25 20 19 15 12 13 14 17 17 25 24 29 14 10 6 4 8 13 5 7 8 15 4 27 9 13 12 48 -2 -2 4 6
11 10 10 13 13 13 13 14 19 16 19 23 28 30 31 26 17 13 7 8 15 15 16 20 18 17 21 18 22 22 23 13 9 6 3 7 8 4 8 7 4 7 -0 -15 32 3 13 -2 4
11 12 9 8 11 13 18 15 20 21 17 22 25 17 8 5 4 6 13 11 3 3 4 16 14 18 20 14 24 33 22 20 22 16 8 5 2 8 7 7 12 9 -4 -0 10 20 2 11 4
5 8 10 11 15 18 17 16 20 18 20 20 16 9 3 8 16 3 8 6 9 13 11 7 16 -2 10 13 2 17 31 29 24 17 22 13 7 4 6 8 7 9 11 -23 11 -39 29 -5 2
9 10 12 13 15 16 20 21 15 14 13 11 9 8 7 9 9 9 14 10 12 -0 11 3 -5 9 5 -0 13 5 8 26 25 29 27 20 21 9 4 5 8 3 5 16 18 -29 -0 18 5
10 13 12 12 13 14 14 16 12 17 13 7 11 10 10 6 4 7 2 3 11 3 -1 4 11 16 2 5 7 11 19 -2 20 25 18 22 23 28 18 6 4 7 7 -0 -2 -33 47 15 6
12 9 6 9 12 8 9 15 10 19 15 12 13 14 15 16 14 13 11 11 9 10 -3 10 8 8 20 11 9 -2 -3 24 5 26 21 21 15 20 33 27 6 4 4 7 9 22 27 18 30
7 6 5 5 7 5 4 8 5 19 19 15 13 16 14 15 23 21 11 5 2 1 4 9 11 12 11 12 10 10 1 -2 10 29 31 16 21 10 10 30 31 11 6 3 5 -2 -2 16 23
7 6 3 5 4 6 4 2 5 14 14 13 13 11 13 11 1 11 38 30 14 8 12 11 13 13 16 12 12 7 9 10 6 3 28 39 18 29 12 16 31 23 20 10 0 4 3 4 -7
6 5 3 7 4 7 4 3 3 10 16 16 13 12 12 14 11 13 8 14 18 19 17 14 15 19 18 14 14 10 7 4 6 6 3 34 16 20 21 34 9 34 32 19 18 7 7 8 5
5 5 5 7 6 3 6 5 6 5 10 17 17 16 15 12 11 13 13 13 11 11 10 11 12 12 13 13 23 10 9 5 9 10 6 31 17 8 12 13 21 23 25 30 25 18 15 6 15
5 4 4 5 6 6 2 3 5 5 4 8 16 17 15 14 15 15 15 16 14 14 13 12 7 7 8 15 10 17 26 18 12 6 7 10 29 4 11 6 27 12 22 23 22 27 16 11 5
Height
5914 5913 5912 5910 5912 5909 5907 5906 5902 5900 5897 5897 5895 5895 5894 5892 5891 5892 5888 5887 5886 5884 5883 5882 5880 5878 5876 5875 5875 5873 5873 5873 5873 5872 5872 5872 5871 5870 5868 5867 5867 5864 5863 5862 5861 5859 5859 5858 5858
5911 5910 5909 5907 5907 5904 5903 5902 5900 5898 5894 5891 5889 5889 5888 5887 5885 5885 5883 5882 5879 5878 5877 5877 5877 5875 5873 5872 5871 5870 5870 5869 5869 5868 5868 5868 5868 5868 5868 5865 5865 5863 5862 5861 5860 5857 5858 5858 5857
5906 5906 5906 5904 5903 5902 5899 5898 5896 5893 5891 5887 5884 5883 5883 5882 5880 5879 5876 5875 5874 5874 5873 5872 5872 5871 5870 5869 5868 5867 5866 5867 5865 5864 5864 5864 5865 5865 5865 5864 5863 5862 5861 5860 5859 5857 5857 5857 5857
5902 5903 5903 5900 5899 5898 5896 5893 5891 5888 5887 5883 5879 5877 5876 5876 5874 5873 5872 5871 5869 5868 5868 5867 5867 5867 5865 5864 5863 5862 5861 5861 5861 5860 5860 5860 5860 5860 5861 5861 5861 5860 5859 5858 5858 5857 5856 5856 5856
5899 5898 5896 5893 5892 5892 5890 5889 5886 5884 5880 5878 5875 5873 5871 5869 5869 5867 5866 5864 5863 5862 5862 5861 5861 5861 5860 5858 5857 5856 5855 5855 5857 5856 5855 5854 5856 5856 5857 5857 5858 5858 5857 5856 5857 5856 5854 5855 5855
5893 5893 5891 5886 5886 5885 5882 5880 5879 5877 5874 5871 5868 5867 5865 5862 5862 5860 5857 5856 5855 5855 5853 5853 5853 5853 5853 5852 5851 5850 5850 5849 5850 5851 5851 5850 5849 5851 5852 5853 5854 5854 5855 5853 5854 5855 5853 5853 5854
5886 5886 5884 5881 5878 5875 5874 5872 5870 5869 5866 5864 5859 5856 5856 5854 5852 5851 5850 5847 5845 5844 5844 5844 5844 5844 5844 5845 5845 5844 5843 5843 5844 5844 5845 5845 5845 5845 5846 5848 5849 5849 5851 5851 5851 5853 5852 5851 5852
5878 5878 5876 5875 5871 5869 5866 5864 5862 5859 5856 5854 5851 5847 5845 5843 5841 5839 5837 5838 5837 5835 5835 5834 5833 5834 5834 5833 5835 5835 5834 5834 5836 5837 5838 5839 5839 5839 5841 5842 5843 5844 5846 5848 5848 5849 5851 5849 5850
5869 5869 5867 5865 5863 5861 5858 5855 5853 5850 5847 5845 5841 5837 5836 5832 5830 5829 5828 5827 5826 5825 5824 5823 5822 5822 5824 5826 5826 5824 5826 5826 5826 5828 5829 5831 5833 5834 5834 5836 5838 5840 5841 5842 5844 5845 5847 5846 5848
5861 5859 5857 5855 5853 5851 5848 5845 5841 5839 5836 5834 5832 5829 5827 5825 5823 5820 5818 5816 5816 5815 5813 5813 5812 5811 5812 5813 5816 5818 5818 5817 5818 5818 5817 5820 5824 5825 5827 5830 5832 5834 5835 5837 5838 5840 5842 5844 5844
5850 5848 5846 5843 5841 5838 5836 5834 5831 5828 5824 5822 5818 5815 5815 5813 5811 5809 5807 5805 5802 5800 5801 5801 5800 5801 5802 5803 5804 5806 5810 5810 5810 5809 5806 5807 5811 5812 5818 5821 5824 5827 5830 5830 5833 5835 5836 5840 5840
5841 5837 5835 5832 5830 5827 5825 5822 5820 5817 5813 5809 5807 5804 5800 5797 5795 5794 5793 5792 5791 5790 5787 5785 5787 5788 5790 5792 5794 5795 5797 5800 5801 5803 5801 5802 5802 5802 5805 5810 5814 5818 5824 5825 5827 5829 5831 5834 5835
5830 5827 5824 5820 5817 5815 5811 5808 5806 5802 5799 5796 5793 5790 5787 5783 5780 5778 5775 5774 5774 5774 5774 5774 5774 5774 5776 5779 5781 5783 5785 5786 5788 5789 5791 5793 5790 5789 5792 5797 5802 5806 5815 5820 5819 5823 5824 5828 5831
5820 5818 5815 5812 5808 5804 5801 5797 5792 5789 5785 5783 5780 5777 5774 5770 5768 5765 5762 5761 5759 5757 5757 5757 5759 5761 5763 5764 5767 5769 5771 5771 5772 5774 5779 5779 5777 5772 5777 5787 5788 5795 5801 5808 5813 5815 5818 5820 5825
5813 5810 5807 5803 5799 5796 5791 5787 5782 5779 5775 5770 5767 5764 5760 5757 5754 5751 5749 5746 5745 5745 5744 5744 5743 5744 5746 5748 5750 5752 5755 5757 5756 5759 5764 5767 5767 5767 5766 5773 5784 5777 5790 5795 5804 5806 5808 5814 5818
5807 5803 5797 5795 5790 5786 5781 5776 5772 5768 5763 5758 5754 5750 5746 5742 5738 5735 5732 5729 5729 5729 5728 5729 5728 5728 5729 5731 5734 5735 5740 5741 5741 5744 5747 5753 5752 5753 5758 5760 5771 5775 5780 5786 5794 5800 5799 5805 5811
5800 5794 5791 5787 5782 5777 5772 5767 5761 5756 5751 5746 5741 5736 5731 5727 5723 5718 5716 5714 5712 5711 5710 5710 5711 5712 5713 5716 5716 5720 5722 5724 5726 5728 5732 5735 5737 5745 5746 5751 5755 5763 5766 5767 5777 5790 5791 5797 5800
5792 5788 5784 5780 5777 5770 5764 5758 5752 5746 5740 5734 5728 5722 5718 5713 5707 5703 5699 5697 5695 5694 5692 5691 5692 5692 5694 5696 5699 5702 5705 5709 5711 5711 5714 5719 5721 5725 5731 5740 5738 5718 5735 5757 5763 5777 5782 5790 5794
5787 5783 5779 5776 5771 5765 5758 5751 5744 5738 5731 5724 5717 5711 5706 5701 5696 5693 5691 5688 5685 5682 5680 5679 5677 5677 5677 5678 5681 5684 5687 5693 5695 5695 5698 5702 5704 5710 5717 5725 5727 5735 5738 5753 5757 5765 5770 5781 5786
5782 5778 5774 5769 5763 5758 5751 5742 5734 5727 5721 5715 5709 5703 5698 5694 5690 5687 5685 5682 5679 5676 5673 5671 5668 5665 5664 5664 5663 5665 5667 5671 5676 5679 5679 5684 5689 5693 5703 5710 5718 5722 5715 5732 5742 5750 5759 5767 5774
5776 5772 5767 5762 5755 5748 5741 5734 5726 5719 5713 5707 5703 5699 5695 5690 5687 5684 5681 5678 5675 5672 5669 5665 5662 5660 5657 5654 5653 5651 5651 5653 5656 5660 5662 5665 5672 5676 5684 5692 5703 5705 5714 5717 5738 5742 5750 5756 5763
5771 5767 5761 5754 5748 5742 5734 5728 5720 5713 5709 5704 5700 5696 5692 5688 5684 5681 5677 5674 5670 5666 5663 5659 5655 5653 5650 5647 5644 5642 5640 5639 5638 5638 5641 5646 5651 5659 5665 5675 5687 5693 5699 5710 5720 5723 5732 5745 5751
5768 5762 5757 5751 5745 5738 5731 5724 5716 5711 5706 5701 5697 5693 5689 5686 5682 5677 5672 5669 5664 5660 5656 5652 5648 5644 5641 5639 5636 5634 5631 5628 5627 5625 5622 5624 5630 5639 5645 5655 5669 5679 5685 5695 5701 5709 5723 5730 5739
5765 5760 5754 5748 5742 5735 5728 5721 5715 5708 5704 5698 5694 5689 5685 5680 5676 5671 5666 5662 5657 5653 5649 5644 5640 5636 5633 5630 5627 5625 5622 5620 5617 5614 5612 5609 5611 5619 5627 5636 5647 5660 5673 5679 5686 5692 5700 5714 5724
5762 5756 5751 5745 5740 5735 5726 5720 5714 5707 5702 5698 5693 5687 5681 5675 5670 5664 5659 5655 5650 5646 5642 5637 5633 5629 5625 5622 5618 5615 5613 5609 5606 5603 5600 5600 5599 5602 5609 5617 5628 5639 5652 5663 5672 5678 5684 5697 5709
5758 5754 5750 5744 5739 5734 5727 5721 5715 5706 5701 5695 5690 5683 5676 5669 5661 5655 5650 5646 5642 5638 5634 5629 5624 5620 5617 5613 5609 5605 5602 5600 5597 5592 5589 5588 5588 5589 5594 5599 5608 5618 5632 5644 5656 5665 5669 5678 5691
5757 5753 5750 5745 5740 5733 5727 5721 5714 5706 5698 5691 5684 5676 5669 5662 5655 5647 5640 5636 5633 5629 5624 5620 5615 5611 5607 5603 5600 5595 5592 5590 5588 5583 5578 5575 5576 5575 5577 5586 5592 5599 5610 5621 5635 5649 5656 5664 5676
5756 5752 5749 5744 5738 5732 5726 5719 5712 5705 5697 5689 5682 5674 5667 5658 5650 5642 5635 5629 5624 5620 5615 5609 5605 5600 5597 5593 5590 5585 5582 5580 5578 5575 5570 5566 5564 5563 5564 5569 5578 5583 5591 5600 5612 5628 5641 5651 5662
5754 5750 5746 5743 5737 5732 5725 5720 5712 5705 5697 5689 5680 5672 5663 5655 5647 5638 5630 5623 5617 5612 5607 5602 5597 5593 5588 5584 5579 5574 5571 5569 5567 5564 5561 5558 5556 5555 5553 5556 5563 5571 5575 5584 5592 5606 5619 5632 5644
5752 5748 5745 5740 5737 5730 5724 5719 5711 5703 5695 5687 5679 5670 5660 5651 5643 5634 5626 5619 5611 5605 5600 5595 5591 5586 5581 5576 5571 5565 5561 5558 5555 5553 5551 5547 5546 5547 5546 5543 5546 5556 5563 5569 5577 5587 5600 5614 5626